Date,TemperatureHighF,TemperatureAvgF,TemperatureLowF,DewpointHighF,DewpointAvgF,DewpointLowF,HumidityHigh,HumidityAvg,HumidityLow,PressureMaxIn,PressureMinIn,WindSpeedMaxMPH,WindSpeedAvgMPH,GustSpeedMaxMPH,PrecipitationSumIn
2013-2-1,32.4,28.1,21.8,19.8,12.9,6.6,73,53,37,30.07,29.58,11,3,11,0.00
2013-2-2,30.1,24.5,17.7,15.7,10.7,4.1,74,56,43,30.24,30.03,8,1,8,0.00
2013-2-3,29.2,24.8,20.3,25.4,21.2,15.6,94,86,66,30.04,29.71,9,0,9,0.00
2013-2-4,29.1,23.7,19.3,21.7,14.1,9.0,93,68,44,29.94,29.71,11,2,11,0.00
2013-2-5,26.7,24.1,20.4,23.1,17.7,12.4,93,76,68,30.00,29.91,4,0,4,0.00
2013-2-6,38.2,29.9,24.4,28.6,20.7,7.7,95,71,46,30.28,29.90,9,1,9,0.01
2013-2-7,31.2,25.0,16.2,20.1,9.2,5.9,84,52,36,30.50,30.28,6,0,7,0.00
2013-2-8,32.2,27.7,17.9,31.4,25.0,14.6,99,90,65,30.46,29.53,10,2,10,0.02
2013-2-9,23.8,19.7,14.6,22.6,18.0,10.9,96,93,85,30.18,29.50,9,2,9,0.00
2013-2-10,37.3,21.6,4.9,25.0,14.7,1.6,88,76,46,30.38,30.18,5,0,5,0.04
2013-2-11,45.6,32.7,14.0,45.6,31.5,11.1,100,95,85,30.34,29.58,7,0,10,0.55
2013-2-12,43.2,38.2,31.7,41.5,30.9,26.0,97,76,59,29.87,29.60,10,2,12,0.00
2013-2-13,42.8,33.7,23.6,30.1,25.9,20.9,93,74,54,29.85,29.66,6,0,6,0.00
2013-2-14,44.4,35.5,29.3,30.1,25.4,22.4,95,69,43,29.98,29.69,6,0,6,0.00
2013-2-15,51.4,37.7,25.8,37.1,31.5,23.8,98,80,56,29.99,29.88,8,1,9,0.00
2013-2-16,37.3,33.5,28.5,33.1,29.4,20.7,97,85,62,29.93,29.65,6,0,6,0.01
2013-2-17,29.8,22.3,16.8,23.8,13.4,3.3,94,71,43,29.68,29.38,14,3,21,0.00
2013-2-18,31.2,22.3,14.9,11.4,4.3,0.3,71,47,28,30.15,29.69,13,3,13,0.00
2013-2-19,47.7,34.7,17.6,43.6,26.8,3.8,99,74,49,30.17,29.56,11,1,11,0.22
2013-2-20,41.3,32.0,25.7,41.0,21.5,11.4,99,67,44,29.77,29.52,12,3,12,0.00
2013-2-21,34.0,28.1,24.0,22.2,16.7,13.7,80,62,49,30.18,29.76,10,2,10,0.00
2013-2-22,39.7,30.9,21.4,26.2,21.8,17.9,87,70,52,30.35,30.18,8,1,9,0.00
2013-2-23,38.3,33.9,28.6,32.8,30.1,24.9,98,86,74,30.31,29.87,9,1,9,0.10
2013-2-24,35.7,33.3,31.4,35.2,33.0,30.9,99,99,98,29.87,29.66,5,0,5,0.46
2013-2-25,39.2,34.1,28.4,36.4,32.1,27.9,99,92,78,30.22,29.86,4,0,4,0.06
2013-2-26,45.2,36.9,31.2,35.7,30.9,27.4,99,80,56,30.31,30.11,9,1,9,0.00
2013-2-27,42.2,39.0,35.7,41.8,38.3,31.9,100,98,86,30.12,29.55,18,2,18,1.06
2013-2-28,45.7,37.6,30.7,41.5,36.0,30.1,100,94,80,29.62,29.50,3,0,3,0.01